Terminal Aerodrome Forecast
Issued by NWS

Home | Current Version | Previous Version | Text Only | Print | Product List | Glossary On
Versions: 1 2 3 4 5 6 7 8 9 10 11 12 13
160
FTUS42 TJSJ 030522
TAFJBQ
TAF
TJBQ 030522Z 0306/0406 11005KT P6SM SCT060
     FM031300 08013KT P6SM FEW030 SCT050
     FM031630 08013KT P6SM SCT030 SCT050
     FM032300 11005KT P6SM SKC
      AMD NOT SKED TIL 031100=

USA.gov is the U.S. government's official web portal to all federal, state and local government web resources and services.